World > North America > United States > North Dakota

Pleasant Lake, North Dakota Regional Weather

Lat: 48.36N, Lon: 99.8W
Wx Zone: NDZ013
Feedback

Pleasant Lake, ND Regional Weather

Expires:201907231100;;502766
ASUS43 KBIS 231010
RWRND 

NORTH DAKOTA REGIONAL WEATHER ROUNDUP
NATIONAL WEATHER SERVICE BISMARCK ND
500 AM CDT TUE JUL 23 2019

NOTE: "FAIR" INDICATES FEW OR NO CLOUDS BELOW 12,000 FEET WITH NO
SIGNIFICANT WEATHER AND/OR OBSTRUCTIONS TO VISIBILITY.



NDZ004>008-012>016-024-026-027-054-231100-
NORTHEAST NORTH DAKOTA
  
CITY           SKY/WX    TMP DP  RH WIND       PRES   REMARKS
GRAND FORKS    CLEAR     54  51  90 CALM      30.22S                  
GRND FRKS AFB  CLEAR     59  54  82 W2        30.36                   
DEVILS LAKE    CLEAR     61  60  97 SW3       30.25F                  
$$
 

SKY/WX - Weather  TMP - Temperature  DP - Dew Point  RH - Relative Humidity
WIND - Wind Direction/Speed PRES - Barometric Pressure VSB - Visibility
WCI - Wind Chill Index E13G22 Wind - East Wind 13 mph/Gusts of 22 mph